Погода в Елшанке

Россия / Ульяновская область     54°05′00″N   48°06′22″E
темп.,
°C
ветер,
м/с
пор.,
м/с
влажн.,
%
обл.,
%
осадки,
мм/ч
давл.,
гПа
погр.,
м
11 мая, вт
вт1101:00+15св3667100 0.0 101985
04:00+13св4674100 0.0 102084
07:00+15всв3870100 0.0 1021218
10:00+20юв5847100 0.0 1023755
13:00+22вюв594076 0.0 10241831
16:00+21в584796 0.0 1024901
19:00+20ююз115970 0.0 102429
22:00+15зсз488062 0.1 1026166
12 мая, ср
ср1201:00+13ссв3486100 0.0 102654
04:00+13св357915 0.0 102569
07:00+15в4117044 0.0 1026328
10:00+20вюв5105382 0.0 10261100
13:00+17вюв41065100 0.0 1026388
16:00+17юв2564100 0.0 1026238
19:00+18вюв386481 0.0 1026342
22:00+14юв397149 0.0 1026199
13 мая, чт
чт1301:00+14в236634 0.0 102644
04:00+12в347069 0.0 102561
07:00+14в4106673 0.0 1025272
10:00+19юв694899 0.0 1025608
13:00+19всв5659100 0.1 1023301
16:00+23вюв6114495 0.1 10231420
19:00+21юв5124989 0.1 1022382
22:00+17юв41056100 0.1 1022200
14 мая, пт
пт1401:00+16юв24556 0.0 102261
04:00+14юв37585 0.0 1022114
07:00+15ююв376420 0.0 1022210
10:00+21ю475044 0.0 1022462
13:00+26ю68375 0.0 10221094
16:00+27ю6103873 0.0 10211496
19:00+23ю510505 0.0 1021286
22:00+19ююв5135258 0.0 1021246
15 мая, сб
сб1501:00+17ю411575 0.0 1021180
04:00+15ююв49565 0.0 1021138
07:00+17ююв410595 0.0 1021197
10:00+23ю69415 0.0 1020458
13:00+27ю811290 0.0 10201264
16:00+27ю610330 0.0 10191611
19:00+23ююв410465 0.0 1018218
22:00+19ююв4104831 0.0 1018133